When you browse on this site, cookies collect data to enhance your experience and personalize the content and advertising you see.
Visit our Privacy Policy to learn more. By continuing to use the site, you agree to this use of cookies and data.
  • In Austria
  • List of Countries
  • For 7 days
  • Water Temperature
  • Satellite Maps
  • Weather Map
  • News
  • Weather Widgets
  • user-avatar
    Login

    Hourly Weather Zhmerynka

    Today, 17 February, Sunday

    Time Temperature Precipitation Wind Pressure Humidity
    00:00 0°C° 0 mm 3 mps 739 mmHg 91%
    01:00 0°C° 0 mm 3 mps 739 mmHg 91%
    02:00 0°C° 0 mm 3 mps 739 mmHg 90%
    03:00 0°C° 0 mm 3 mps 739 mmHg 89%
    04:00 0°C° 0 mm 3 mps 738 mmHg 89%
    05:00 -1°C° 0 mm 4 mps 738 mmHg 88%
    06:00 -1°C° 0 mm 4 mps 738 mmHg 86%
    07:00 -1°C° 0 mm 4 mps 738 mmHg 84%
    08:00 0°C° 0 mm 4 mps 738 mmHg 82%
    09:00 +1°C° 0 mm 5 mps 737 mmHg 74%
    10:00 +3°C° 0 mm 5 mps 737 mmHg 66%
    11:00 +5°C° 0 mm 6 mps 737 mmHg 57%
    12:00 +7°C° 0 mm 6 mps 737 mmHg 56%
    13:00 +7°C° 0 mm 6 mps 737 mmHg 54%
    14:00 +8°C° 0 mm 7 mps 737 mmHg 53%
    15:00 +7°C° 0 mm 6 mps 736 mmHg 57%
    16:00 +7°C° 0 mm 6 mps 736 mmHg 61%
    17:00 +6°C° 0 mm 5 mps 736 mmHg 65%
    18:00 +5°C° 0 mm 5 mps 736 mmHg 68%
    19:00 +3°C° 0 mm 5 mps 736 mmHg 72%
    20:00 +2°C° 0 mm 5 mps 736 mmHg 76%
    21:00 +2°C° 0 mm 5 mps 737 mmHg 79%
    22:00 +2°C° 0 mm 5 mps 737 mmHg 83%
    23:00 +1°C° 0 mm 4 mps 737 mmHg 86%

    Tomorrow, 18 February, Monday

    Time Temperature Precipitation Wind Pressure Humidity
    00:00 +1°C° 0 mm 4 mps 737 mmHg 88%
    01:00 +2°C° 0 mm 3 mps 738 mmHg 90%
    02:00 +2°C° 0 mm 3 mps 738 mmHg 91%
    03:00 +2°C° 0 mm 3 mps 738 mmHg 91%
    04:00 +2°C° 0 mm 3 mps 738 mmHg 90%
    05:00 +2°C° 0 mm 3 mps 738 mmHg 89%
    06:00 +2°C° 0 mm 3 mps 738 mmHg 88%
    07:00 +2°C° 0 mm 3 mps 738 mmHg 87%
    08:00 +2°C° 0 mm 3 mps 738 mmHg 86%
    09:00 +2°C° 0 mm 3 mps 739 mmHg 81%
    10:00 +3°C° 0 mm 3 mps 739 mmHg 77%
    11:00 +4°C° 0 mm 3 mps 739 mmHg 73%
    12:00 +4°C° 0 mm 3 mps 739 mmHg 72%
    13:00 +4°C° 0 mm 3 mps 739 mmHg 72%
    14:00 +4°C° 0 mm 3 mps 739 mmHg 71%
    15:00 +5°C° 0 mm 2 mps 739 mmHg 73%
    16:00 +5°C° 0 mm 2 mps 739 mmHg 74%
    17:00 +5°C° 0 mm 1 mps 739 mmHg 76%
    18:00 +5°C° 0 mm 1 mps 739 mmHg 78%
    19:00 +4°C° 0 mm 1 mps 739 mmHg 81%
    20:00 +3°C° 0 mm 1 mps 739 mmHg 83%
    21:00 +3°C° 0 mm 1 mps 739 mmHg 83%
    22:00 +2°C° 0 mm 1 mps 739 mmHg 84%
    23:00 -1°C° 0 mm 2 mps 740 mmHg 84%

    Day after tomorrow, 19 February, Tuesday

    Time Temperature Precipitation Wind Pressure Humidity
    00:00 -1°C° 0 mm 2 mps 740 mmHg 84%
    01:00 -1°C° 0 mm 2 mps 740 mmHg 84%
    02:00 -1°C° 0 mm 2 mps 740 mmHg 84%
    03:00 -2°C° 0 mm 2 mps 740 mmHg 83%
    04:00 -2°C° 0 mm 2 mps 740 mmHg 82%
    05:00 -2°C° 0 mm 2 mps 740 mmHg 81%
    06:00 -2°C° 0 mm 2 mps 740 mmHg 79%
    07:00 -2°C° 0 mm 3 mps 740 mmHg 77%
    08:00 -2°C° 0 mm 3 mps 740 mmHg 76%
    09:00 -1°C° 0 mm 3 mps 740 mmHg 69%
    10:00 0°C° 0 mm 4 mps 740 mmHg 63%
    11:00 +1°C° 0 mm 4 mps 740 mmHg 57%
    12:00 +1°C° 0 mm 4 mps 740 mmHg 57%
    13:00 +3°C° 0 mm 4 mps 739 mmHg 57%
    14:00 +4°C° 0 mm 4 mps 739 mmHg 57%
    15:00 +3°C° 0 mm 4 mps 738 mmHg 60%
    16:00 +1°C° 0 mm 4 mps 738 mmHg 64%
    17:00 +1°C° 0 mm 4 mps 738 mmHg 68%
    18:00 0°C° 0 mm 4 mps 737 mmHg 70%
    19:00 -1°C° 0 mm 4 mps 737 mmHg 72%
    20:00 -1°C° 0 mm 4 mps 737 mmHg 74%
    21:00 -1°C° 0 mm 4 mps 737 mmHg 75%
    22:00 -1°C° 0 mm 4 mps 737 mmHg 75%
    23:00 -1°C° 0 mm 4 mps 736 mmHg 76%

    20 February, Wednesday

    Time Temperature Precipitation Wind Pressure Humidity
    00:00 -2°C° 0 mm 4 mps 736 mmHg 79%
    01:00 -2°C° 0 mm 4 mps 736 mmHg 82%
    02:00 -2°C° 0 mm 4 mps 736 mmHg 85%
    03:00 -2°C° 0 mm 4 mps 736 mmHg 87%
    04:00 -2°C° 0 mm 4 mps 735 mmHg 90%
    05:00 -2°C° 0 mm 3 mps 735 mmHg 93%
    06:00 -1°C° 0 mm 3 mps 735 mmHg 94%
    07:00 -1°C° 0 mm 3 mps 735 mmHg 95%
    08:00 -1°C° 0 mm 3 mps 735 mmHg 96%
    09:00 +1°C° 0 mm 3 mps 736 mmHg 87%
    10:00 +3°C° 0 mm 4 mps 736 mmHg 79%
    11:00 +4°C° 0 mm 4 mps 736 mmHg 70%
    12:00 +5°C° 0 mm 4 mps 736 mmHg 70%
    13:00 +6°C° 0 mm 5 mps 736 mmHg 70%
    14:00 +7°C° 0 mm 5 mps 736 mmHg 70%
    15:00 +6°C° 0 mm 5 mps 736 mmHg 72%
    16:00 +5°C° 0 mm 5 mps 736 mmHg 75%
    17:00 +4°C° 0 mm 4 mps 736 mmHg 78%
    18:00 +4°C° 0 mm 4 mps 736 mmHg 77%
    19:00 +3°C° 0 mm 4 mps 736 mmHg 77%
    20:00 +3°C° 0 mm 3 mps 737 mmHg 76%
    21:00 +2°C° 0 mm 3 mps 737 mmHg 79%
    22:00 +2°C° 0 mm 3 mps 737 mmHg 82%
    23:00 +1°C° 0 mm 3 mps 737 mmHg 85%

    21 February, Thursday

    Time Temperature Precipitation Wind Pressure Humidity
    00:00 0°C° 0 mm 4 mps 737 mmHg 86%
    01:00 0°C° 0 mm 4 mps 736 mmHg 87%
    02:00 0°C° 0 mm 4 mps 736 mmHg 88%
    03:00 0°C° 0 mm 5 mps 736 mmHg 88%
    04:00 0°C° 0 mm 5 mps 736 mmHg 87%
    05:00 0°C° 0 mm 5 mps 736 mmHg 87%
    06:00 0°C° 0 mm 5 mps 736 mmHg 88%
    07:00 -1°C° 0 mm 5 mps 736 mmHg 90%
    08:00 -1°C° 0 mm 4 mps 736 mmHg 92%
    09:00 0°C° 0 mm 5 mps 736 mmHg 86%
    10:00 +2°C° 0 mm 6 mps 736 mmHg 80%
    11:00 +3°C° 0 mm 6 mps 736 mmHg 74%
    12:00 +3°C° 0 mm 6 mps 736 mmHg 75%
    13:00 +3°C° 0 mm 6 mps 736 mmHg 75%
    14:00 +4°C° 0 mm 6 mps 736 mmHg 76%
    15:00 +4°C° 0 mm 6 mps 736 mmHg 77%
    16:00 +5°C° 0 mm 5 mps 736 mmHg 77%
    17:00 +5°C° 0 mm 4 mps 735 mmHg 78%
    18:00 +4°C° 0 mm 4 mps 735 mmHg 80%
    19:00 +4°C° 0 mm 4 mps 736 mmHg 82%
    20:00 +3°C° 0 mm 4 mps 736 mmHg 84%
    21:00 +3°C° 0.1 mm 4 mps 736 mmHg 84%
    22:00 +3°C° 0.1 mm 4 mps 736 mmHg 84%
    23:00 +3°C° 0.1 mm 4 mps 736 mmHg 84%

    22 February, Friday

    Time Temperature Precipitation Wind Pressure Humidity
    00:00 +3°C° 0.2 mm 4 mps 735 mmHg 86%
    01:00 +3°C° 0.2 mm 4 mps 735 mmHg 88%
    02:00 +1°C° 0.2 mm 4 mps 735 mmHg 89%
    03:00 +2°C° 0.2 mm 3 mps 735 mmHg 90%
    04:00 +2°C° 0.2 mm 3 mps 734 mmHg 92%
    05:00 +2°C° 0.2 mm 3 mps 734 mmHg 93%
    06:00 +2°C° 0.1 mm 3 mps 734 mmHg 93%
    07:00 +3°C° 0.1 mm 2 mps 734 mmHg 94%
    08:00 +3°C° 0.1 mm 2 mps 734 mmHg 94%
    09:00 +2°C° 0.1 mm 3 mps 734 mmHg 92%
    10:00 +2°C° 0.1 mm 3 mps 734 mmHg 90%
    11:00 +2°C° 0.1 mm 3 mps 734 mmHg 88%
    12:00 0°C° 0.3 mm 4 mps 734 mmHg 87%
    13:00 -1°C° 0.3 mm 5 mps 734 mmHg 85%
    14:00 -3°C° 0.3 mm 6 mps 734 mmHg 83%
    15:00 -4°C° 0.3 mm 7 mps 735 mmHg 83%
    16:00 -6°C° 0.3 mm 8 mps 735 mmHg 83%
    17:00 -7°C° 0.3 mm 8 mps 736 mmHg 83%
    18:00 -8°C° 0.3 mm 8 mps 737 mmHg 82%
    19:00 -10°C° 0.3 mm 8 mps 738 mmHg 80%
    20:00 -10°C° 0.3 mm 9 mps 739 mmHg 78%
    21:00 -11°C° 0 mm 8 mps 740 mmHg 74%
    22:00 -11°C° 0 mm 8 mps 741 mmHg 71%
    23:00 -12°C° 0 mm 8 mps 742 mmHg 67%
    Show more